Showing default

COSMOS 446, 5549

Orbit data source: Space-Track

COSMOS 446, 5549 is a payload satellite owned by OKB-10 (CIS) in LEO that was launched on Wed, 13 Oct 1971 UTC via a KOSMOS 11K65M launch vehicle from the Plesetsk Missile And Space Complex (PKMTR). Payload-class satellites include a variety of spacecraft equipped with specific instruments for various scientific and technological missions. These include communications satellites like Starlink; space stations such as the ISS; scientific satellites like the Hubble; Earth observation satellites from companies like Planet Labs, Umbra, and HawkEye 360; GPS; miniature CubeSats for education and research; and military/defense satellites.

Loading next visibility...
Identifier
5549, 1971-086C
Orbit
LEO
Country
Flag of CISCIS
Related business
Manufacturer
OKB-10
Mission
Spacecraft
Bus & Motor
STRELA-1 11F625, Unknown motor
Mass
60 kg wet, 60 kg dry
Launch date (UTC)
1971-10-13 (55 years ago)
Launch vehicle
KOSMOS 11K65M
Launch site
Plesetsk Missile And Space Complex (PKMTR)
Object type
Payload
Rocket body
Debris
Shape & HBR
Unknown
Radar Cross Section
Medium (>0.1 m² and <1 m²)

Expand to show TLE details & history
Last TLE update: 2 days ago

TLE from 2 days ago
0 COSMOS 446
1  5549U 71086C   26171.23680106  .00000007  00000-0  13624-3 0  9994
2  5549  74.0277 113.5630 0082922  93.6335 267.4206 12.54461286504154
Epoch: 2026-06-20T05:40Z
TLE epoch observation values (Epoch: 2026-06-20T05:40:59.611Z)
Latitude
-0.00002°
Longitude
119.8603°
Altitude
1,451.733 km
Speed
7.135 km/s
True Right ascension
07h 34m 15s
True Declination
0° 00' 00"
Sunlit
Object was in daylight at epoch
Visualization orbit readout
Latitude
Unknown
Longitude
Unknown
Altitude
Unknown
Speed
Unknown
Apparent Right ascension
Unknown
Apparent Declination
Unknown
Sunlit
N/A
Visualization observer readout
Local Sidereal Time
23:09:04
Azimuth
Unknown
Elevation
Unknown
Doppler factor
Unknown
Orbital elements
Apogee altitude
1,508.58 km
Perigee altitude
1,378.859 km
Semi-major axis
7,821.857 km
Eccentricity
0.00829
Inclination
74.0277°
RAAN
113.563°
Arg. of periapsis
93.6335°
True anomaly
266.47183°
Mean anomaly
267.4206°
Eccentric anomaly
266.94617°
Mean motion
3.13746 °/min
Orbital period
114.74 mins
BSTAR
0.00013624
Loading maneuver chart data...
Computing Atmospheric mass density...
Loading historical data...
Loading historical data...
Loading historical data...
Loading historical data...
Loading historical data...
Loading historical data...
Loading historical data...

Documentation

Showing up to 5 results
|